Year,Month,Day,Hour,Minute,Value (Times are PST for temperature in C)
2010,03,28,00,00,13.80
2010,03,28,00,01,13.80
2010,03,28,00,02,13.80
2010,03,28,00,03,13.70
2010,03,28,00,04,13.70
2010,03,28,00,05,13.70
2010,03,28,00,06,13.70
2010,03,28,00,07,13.80
2010,03,28,00,08,13.80
2010,03,28,00,09,13.80
2010,03,28,00,10,13.80
2010,03,28,00,11,13.80
2010,03,28,00,12,13.80
2010,03,28,00,13,13.80
2010,03,28,00,14,13.80
2010,03,28,00,15,13.80
2010,03,28,00,16,13.70
2010,03,28,00,17,13.70
2010,03,28,00,18,13.70
2010,03,28,00,19,13.70
2010,03,28,00,20,13.70
2010,03,28,00,21,13.70
2010,03,28,00,22,13.70
2010,03,28,00,23,13.60
2010,03,28,00,24,13.60
2010,03,28,00,25,13.70
2010,03,28,00,26,13.70
2010,03,28,00,27,13.70
2010,03,28,00,28,13.60
2010,03,28,00,29,13.60
2010,03,28,00,30,13.60
2010,03,28,00,31,13.60
2010,03,28,00,32,13.60
2010,03,28,00,33,13.60
2010,03,28,00,34,13.60
2010,03,28,00,35,13.60
2010,03,28,00,36,13.50
2010,03,28,00,37,13.50
2010,03,28,00,38,13.50
2010,03,28,00,39,13.50
2010,03,28,00,40,13.50
2010,03,28,00,41,13.50
2010,03,28,00,42,13.50
2010,03,28,00,43,13.50
2010,03,28,00,44,13.50
2010,03,28,00,45,13.40
2010,03,28,00,46,13.40
2010,03,28,00,47,13.30
2010,03,28,00,48,13.30
2010,03,28,00,49,13.20
2010,03,28,00,50,13.10
2010,03,28,00,51,13.10
2010,03,28,00,52,13.00
2010,03,28,00,53,12.90
2010,03,28,00,54,12.90
2010,03,28,00,55,12.90
2010,03,28,00,56,12.80
2010,03,28,00,57,12.80
2010,03,28,00,58,12.80
2010,03,28,00,59,12.80
2010,03,28,01,00,12.70
2010,03,28,01,01,12.70
2010,03,28,01,02,12.70
2010,03,28,01,03,12.70
2010,03,28,01,04,12.70
2010,03,28,01,05,12.70
2010,03,28,01,06,12.70
2010,03,28,01,07,12.70
2010,03,28,01,08,12.70
2010,03,28,01,09,12.70
2010,03,28,01,10,12.70
2010,03,28,01,11,12.70
2010,03,28,01,12,12.70
2010,03,28,01,13,12.70
2010,03,28,01,14,12.70
2010,03,28,01,15,12.70
2010,03,28,01,16,12.60
2010,03,28,01,17,12.60
2010,03,28,01,18,12.60
2010,03,28,01,19,12.60
2010,03,28,01,20,12.60
2010,03,28,01,21,12.50
2010,03,28,01,22,12.50
2010,03,28,01,23,12.50
2010,03,28,01,24,12.40
2010,03,28,01,25,12.40
2010,03,28,01,26,12.40
2010,03,28,01,27,12.30
2010,03,28,01,28,12.30
2010,03,28,01,29,12.30
2010,03,28,01,30,12.20
2010,03,28,01,31,12.20
2010,03,28,01,32,12.20
2010,03,28,01,33,12.20
2010,03,28,01,34,12.20
2010,03,28,01,35,12.30
2010,03,28,01,36,12.30
2010,03,28,01,37,12.30
2010,03,28,01,38,12.30
2010,03,28,01,39,12.30
2010,03,28,01,40,12.40
2010,03,28,01,41,12.40
2010,03,28,01,42,12.40
2010,03,28,01,43,12.50
2010,03,28,01,44,12.50
2010,03,28,01,45,12.60
2010,03,28,01,46,12.60
2010,03,28,01,47,12.70
2010,03,28,01,48,12.70
2010,03,28,01,49,12.70
2010,03,28,01,50,12.70
2010,03,28,01,51,12.60
2010,03,28,01,52,12.60
2010,03,28,01,53,12.60
2010,03,28,01,54,12.60
2010,03,28,01,55,12.50
2010,03,28,01,56,12.50
2010,03,28,01,57,12.50
2010,03,28,01,58,12.40
2010,03,28,01,59,12.40
2010,03,28,02,00,12.30
2010,03,28,02,01,12.30
2010,03,28,02,02,12.30
2010,03,28,02,03,12.20
2010,03,28,02,04,12.20
2010,03,28,02,05,12.20
2010,03,28,02,06,12.10
2010,03,28,02,07,12.10
2010,03,28,02,08,12.00
2010,03,28,02,09,11.90
2010,03,28,02,10,11.80
2010,03,28,02,11,11.80
2010,03,28,02,12,11.70
2010,03,28,02,13,11.60
2010,03,28,02,14,11.50
2010,03,28,02,15,11.50
2010,03,28,02,16,11.40
2010,03,28,02,17,11.30
2010,03,28,02,18,11.30
2010,03,28,02,19,11.20
2010,03,28,02,20,11.10
2010,03,28,02,21,11.10
2010,03,28,02,22,11.00
2010,03,28,02,23,10.90
2010,03,28,02,24,10.80
2010,03,28,02,25,10.60
2010,03,28,02,26,10.50
2010,03,28,02,27,10.40
2010,03,28,02,28,10.30
2010,03,28,02,29,10.30
2010,03,28,02,30,10.20
2010,03,28,02,31,10.10
2010,03,28,02,32,10.00
2010,03,28,02,33,9.90
2010,03,28,02,34,9.90
2010,03,28,02,35,9.80
2010,03,28,02,36,9.80
2010,03,28,02,37,9.80
2010,03,28,02,38,9.70
2010,03,28,02,39,9.70
2010,03,28,02,40,9.70
2010,03,28,02,41,9.70
2010,03,28,02,42,9.70
2010,03,28,02,43,9.70
2010,03,28,02,44,9.70
2010,03,28,02,45,9.70
2010,03,28,02,46,9.70
2010,03,28,02,47,9.70
2010,03,28,02,48,9.70
2010,03,28,02,49,9.60
2010,03,28,02,50,9.60
2010,03,28,02,51,9.50
2010,03,28,02,52,9.40
2010,03,28,02,53,9.30
2010,03,28,02,54,9.30
2010,03,28,02,55,9.10
2010,03,28,02,56,9.00
2010,03,28,02,57,8.90
2010,03,28,02,58,8.90
2010,03,28,02,59,8.80
2010,03,28,03,00,8.70
2010,03,28,03,01,8.60
2010,03,28,03,02,8.60
2010,03,28,03,03,8.50
2010,03,28,03,04,8.50
2010,03,28,03,05,8.40
2010,03,28,03,06,8.40
2010,03,28,03,07,8.30
2010,03,28,03,08,8.30
2010,03,28,03,09,8.30
2010,03,28,03,10,8.30
2010,03,28,03,11,8.20
2010,03,28,03,12,8.20
2010,03,28,03,13,8.20
2010,03,28,03,14,8.20
2010,03,28,03,15,8.20
2010,03,28,03,16,8.10
2010,03,28,03,17,8.10
2010,03,28,03,18,8.10
2010,03,28,03,19,8.10
2010,03,28,03,20,8.10
2010,03,28,03,21,8.00
2010,03,28,03,22,8.00
2010,03,28,03,23,8.00
2010,03,28,03,24,7.90
2010,03,28,03,25,7.90
2010,03,28,03,26,7.90
2010,03,28,03,27,7.90
2010,03,28,03,28,7.90
2010,03,28,03,29,7.90
2010,03,28,03,30,7.80
2010,03,28,03,31,7.80
2010,03,28,03,32,7.80
2010,03,28,03,33,7.80
2010,03,28,03,34,7.80
2010,03,28,03,35,7.80
2010,03,28,03,36,7.80
2010,03,28,03,37,7.80
2010,03,28,03,38,7.70
2010,03,28,03,39,7.70
2010,03,28,03,40,7.70
2010,03,28,03,41,7.70
2010,03,28,03,42,7.70
2010,03,28,03,43,7.70
2010,03,28,03,44,7.70
2010,03,28,03,45,7.70
2010,03,28,03,46,7.70
2010,03,28,03,47,7.70
2010,03,28,03,48,7.70
2010,03,28,03,49,7.70
2010,03,28,03,50,7.70
2010,03,28,03,51,7.70
2010,03,28,03,52,7.70
2010,03,28,03,53,7.70
2010,03,28,03,54,7.70
2010,03,28,03,55,7.70
2010,03,28,03,56,7.70
2010,03,28,03,57,7.70
2010,03,28,03,58,7.70
2010,03,28,03,59,7.70
2010,03,28,04,00,7.70
2010,03,28,04,01,7.80
2010,03,28,04,02,7.80
2010,03,28,04,03,7.80
2010,03,28,04,04,7.80
2010,03,28,04,05,7.80
2010,03,28,04,06,7.70
2010,03,28,04,07,7.70
2010,03,28,04,08,7.70
2010,03,28,04,09,7.70
2010,03,28,04,10,7.70
2010,03,28,04,11,7.70
2010,03,28,04,12,7.70
2010,03,28,04,13,7.70
2010,03,28,04,14,7.70
2010,03,28,04,15,7.70
2010,03,28,04,16,7.70
2010,03,28,04,17,7.60
2010,03,28,04,18,7.60
2010,03,28,04,19,7.60
2010,03,28,04,20,7.60
2010,03,28,04,21,7.60
2010,03,28,04,22,7.60
2010,03,28,04,23,7.60
2010,03,28,04,24,7.60
2010,03,28,04,25,7.60
2010,03,28,04,26,7.60
2010,03,28,04,27,7.50
2010,03,28,04,28,7.50
2010,03,28,04,29,7.50
2010,03,28,04,30,7.50
2010,03,28,04,31,7.50
2010,03,28,04,32,7.50
2010,03,28,04,33,7.50
2010,03,28,04,34,7.50
2010,03,28,04,35,7.50
2010,03,28,04,36,7.50
2010,03,28,04,37,7.50
2010,03,28,04,38,7.50
2010,03,28,04,39,7.50
2010,03,28,04,40,7.60
2010,03,28,04,41,7.60
2010,03,28,04,42,7.60
2010,03,28,04,43,7.60
2010,03,28,04,44,7.60
2010,03,28,04,45,7.60
2010,03,28,04,46,7.60
2010,03,28,04,47,7.60
2010,03,28,04,48,7.60
2010,03,28,04,49,7.60
2010,03,28,04,50,7.60
2010,03,28,04,51,7.60
2010,03,28,04,52,7.60
2010,03,28,04,53,7.60
2010,03,28,04,54,7.60
2010,03,28,04,55,7.60
2010,03,28,04,56,7.50
2010,03,28,04,57,7.50
2010,03,28,04,58,7.50
2010,03,28,04,59,7.50
2010,03,28,05,00,7.50
2010,03,28,05,01,7.60
2010,03,28,05,02,7.50
2010,03,28,05,03,7.50
2010,03,28,05,04,7.50
2010,03,28,05,05,7.50
2010,03,28,05,06,7.50
2010,03,28,05,07,7.50
2010,03,28,05,08,7.50
2010,03,28,05,09,7.50
2010,03,28,05,10,7.50
2010,03,28,05,11,7.50
2010,03,28,05,12,7.50
2010,03,28,05,13,7.50
2010,03,28,05,14,7.60
2010,03,28,05,15,7.50
2010,03,28,05,16,7.50
2010,03,28,05,17,7.50
2010,03,28,05,18,7.50
2010,03,28,05,19,7.50
2010,03,28,05,20,7.50
2010,03,28,05,21,7.50
2010,03,28,05,22,7.50
2010,03,28,05,23,7.50
2010,03,28,05,24,7.50
2010,03,28,05,25,7.50
2010,03,28,05,26,7.50
2010,03,28,05,27,7.60
2010,03,28,05,28,7.60
2010,03,28,05,29,7.60
2010,03,28,05,30,7.60
2010,03,28,05,31,7.60
2010,03,28,05,32,7.60
2010,03,28,05,33,7.60
2010,03,28,05,34,7.60
2010,03,28,05,35,7.60
2010,03,28,05,36,7.60
2010,03,28,05,37,7.60
2010,03,28,05,38,7.60
2010,03,28,05,39,7.60
2010,03,28,05,40,7.60
2010,03,28,05,41,7.60
2010,03,28,05,42,7.60
2010,03,28,05,43,7.60
2010,03,28,05,44,7.60
2010,03,28,05,45,7.60
2010,03,28,05,46,7.60
2010,03,28,05,47,7.60
2010,03,28,05,48,7.60
2010,03,28,05,49,7.60
2010,03,28,05,50,7.60
2010,03,28,05,51,7.60
2010,03,28,05,52,7.60
2010,03,28,05,53,7.60
2010,03,28,05,54,7.60
2010,03,28,05,55,7.60
2010,03,28,05,56,7.60
2010,03,28,05,57,7.60
2010,03,28,05,58,7.60
2010,03,28,05,59,7.60
2010,03,28,06,00,7.60
2010,03,28,06,01,7.60
2010,03,28,06,02,7.60
2010,03,28,06,03,7.60
2010,03,28,06,04,7.60
2010,03,28,06,05,7.70
2010,03,28,06,06,7.70
2010,03,28,06,07,7.70
2010,03,28,06,08,7.70
2010,03,28,06,09,7.70
2010,03,28,06,10,7.80
2010,03,28,06,11,7.80
2010,03,28,06,12,7.80
2010,03,28,06,13,7.80
2010,03,28,06,14,7.80
2010,03,28,06,15,7.80
2010,03,28,06,16,7.80
2010,03,28,06,17,7.80
2010,03,28,06,18,7.80
2010,03,28,06,19,7.80
2010,03,28,06,20,7.80
2010,03,28,06,21,7.80
2010,03,28,06,22,7.80
2010,03,28,06,23,7.80
2010,03,28,06,24,7.80
2010,03,28,06,25,7.80
2010,03,28,06,26,7.80
2010,03,28,06,27,7.80
2010,03,28,06,28,7.80
2010,03,28,06,29,7.90
2010,03,28,06,30,7.90
2010,03,28,06,31,8.00
2010,03,28,06,32,8.00
2010,03,28,06,33,8.10
2010,03,28,06,34,8.10
2010,03,28,06,35,8.10
2010,03,28,06,36,8.20
2010,03,28,06,37,8.20
2010,03,28,06,38,8.20
2010,03,28,06,39,8.20
2010,03,28,06,40,8.20
2010,03,28,06,41,8.20
2010,03,28,06,42,8.20
2010,03,28,06,43,8.20
2010,03,28,06,44,8.20
2010,03,28,06,45,8.20
2010,03,28,06,46,8.20
2010,03,28,06,47,8.20
2010,03,28,06,48,8.20
2010,03,28,06,49,8.20
2010,03,28,06,50,8.20
2010,03,28,06,51,8.20
2010,03,28,06,52,8.20
2010,03,28,06,53,8.20
2010,03,28,06,54,8.20
2010,03,28,06,55,8.20
2010,03,28,06,56,8.20
2010,03,28,06,57,8.20
2010,03,28,06,58,8.20
2010,03,28,06,59,8.20
2010,03,28,07,00,8.20
2010,03,28,07,01,8.20
2010,03,28,07,02,8.20
2010,03,28,07,03,8.20
2010,03,28,07,04,8.10
2010,03,28,07,05,8.10
2010,03,28,07,06,8.10
2010,03,28,07,07,8.10
2010,03,28,07,08,8.00
2010,03,28,07,09,8.00
2010,03,28,07,10,8.00
2010,03,28,07,11,7.90
2010,03,28,07,12,7.90
2010,03,28,07,13,7.90
2010,03,28,07,14,7.90
2010,03,28,07,15,7.90
2010,03,28,07,16,7.80
2010,03,28,07,17,7.90
2010,03,28,07,18,7.90
2010,03,28,07,19,7.90
2010,03,28,07,20,7.90
2010,03,28,07,21,8.00
2010,03,28,07,22,8.00
2010,03,28,07,23,8.00
2010,03,28,07,24,8.10
2010,03,28,07,25,8.10
2010,03,28,07,26,8.10
2010,03,28,07,27,8.10
2010,03,28,07,28,8.10
2010,03,28,07,29,8.00
2010,03,28,07,30,8.00
2010,03,28,07,31,7.90
2010,03,28,07,32,7.90
2010,03,28,07,33,7.90
2010,03,28,07,34,7.90
2010,03,28,07,35,7.90
2010,03,28,07,36,7.90
2010,03,28,07,37,7.90
2010,03,28,07,38,7.90
2010,03,28,07,39,7.90
2010,03,28,07,40,7.90
2010,03,28,07,41,7.90
2010,03,28,07,42,7.80
2010,03,28,07,43,7.80
2010,03,28,07,44,7.80
2010,03,28,07,45,7.80
2010,03,28,07,46,7.80
2010,03,28,07,47,7.70
2010,03,28,07,48,7.70
2010,03,28,07,49,7.70
2010,03,28,07,50,7.70
2010,03,28,07,51,7.70
2010,03,28,07,52,7.70
2010,03,28,07,53,7.70
2010,03,28,07,54,7.70
2010,03,28,07,55,7.70
2010,03,28,07,56,7.70
2010,03,28,07,57,7.70
2010,03,28,07,58,7.80
2010,03,28,07,59,7.80
2010,03,28,08,00,7.80
2010,03,28,08,01,7.80
2010,03,28,08,02,7.80
2010,03,28,08,03,7.80
2010,03,28,08,04,7.80
2010,03,28,08,05,7.80
2010,03,28,08,06,7.80
2010,03,28,08,07,7.80
2010,03,28,08,08,7.80
2010,03,28,08,09,7.80
2010,03,28,08,10,7.70
2010,03,28,08,11,7.70
2010,03,28,08,12,7.70
2010,03,28,08,13,7.70
2010,03,28,08,14,7.70
2010,03,28,08,15,7.70
2010,03,28,08,16,7.70
2010,03,28,08,17,7.70
2010,03,28,08,18,7.70
2010,03,28,08,19,7.70
2010,03,28,08,20,7.70
2010,03,28,08,21,7.70
2010,03,28,08,22,7.80
2010,03,28,08,23,7.80
2010,03,28,08,24,7.80
2010,03,28,08,25,7.80
2010,03,28,08,26,7.80
2010,03,28,08,27,7.80
2010,03,28,08,28,7.80
2010,03,28,08,29,7.80
2010,03,28,08,30,7.80
2010,03,28,08,31,7.80
2010,03,28,08,32,7.80
2010,03,28,08,33,7.80
2010,03,28,08,34,7.80
2010,03,28,08,35,7.70
2010,03,28,08,36,7.70
2010,03,28,08,37,7.70
2010,03,28,08,38,7.70
2010,03,28,08,39,7.70
2010,03,28,08,40,7.70
2010,03,28,08,41,7.70
2010,03,28,08,42,7.70
2010,03,28,08,43,7.70
2010,03,28,08,44,7.70
2010,03,28,08,45,7.70
2010,03,28,08,46,7.70
2010,03,28,08,47,7.70
2010,03,28,08,48,7.80
2010,03,28,08,49,7.80
2010,03,28,08,50,7.80
2010,03,28,08,51,7.80
2010,03,28,08,52,7.80
2010,03,28,08,53,7.80
2010,03,28,08,54,7.80
2010,03,28,08,55,7.80
2010,03,28,08,56,7.80
2010,03,28,08,57,7.80
2010,03,28,08,58,7.80
2010,03,28,08,59,7.80
2010,03,28,09,00,7.80
2010,03,28,09,01,7.80
2010,03,28,09,02,7.80
2010,03,28,09,03,7.80
2010,03,28,09,04,7.90
2010,03,28,09,05,7.90
2010,03,28,09,06,7.90
2010,03,28,09,07,7.90
2010,03,28,09,08,7.90
2010,03,28,09,09,7.90
2010,03,28,09,10,7.90
2010,03,28,09,11,8.00
2010,03,28,09,12,8.00
2010,03,28,09,13,8.00
2010,03,28,09,14,8.00
2010,03,28,09,15,8.00
2010,03,28,09,16,8.00
2010,03,28,09,17,8.00
2010,03,28,09,18,8.00
2010,03,28,09,19,8.00
2010,03,28,09,20,8.00
2010,03,28,09,21,8.00
2010,03,28,09,22,8.10
2010,03,28,09,23,8.10
2010,03,28,09,24,8.10
2010,03,28,09,25,8.10
2010,03,28,09,26,8.20
2010,03,28,09,27,8.20
2010,03,28,09,28,8.30
2010,03,28,09,29,8.30
2010,03,28,09,30,8.30
2010,03,28,09,31,8.30
2010,03,28,09,32,8.40
2010,03,28,09,33,8.40
2010,03,28,09,34,8.40
2010,03,28,09,35,8.50
2010,03,28,09,36,8.50
2010,03,28,09,37,8.50
2010,03,28,09,38,8.50
2010,03,28,09,39,8.60
2010,03,28,09,40,8.60
2010,03,28,09,41,8.60
2010,03,28,09,42,8.60
2010,03,28,09,43,8.60
2010,03,28,09,44,8.50
2010,03,28,09,45,8.50
2010,03,28,09,46,8.50
2010,03,28,09,47,8.50
2010,03,28,09,48,8.50
2010,03,28,09,49,8.60
2010,03,28,09,50,8.60
2010,03,28,09,51,8.60
2010,03,28,09,52,8.60
2010,03,28,09,53,8.70
2010,03,28,09,54,8.70
2010,03,28,09,55,8.70
2010,03,28,09,56,8.70
2010,03,28,09,57,8.70
2010,03,28,09,58,8.70
2010,03,28,09,59,8.70
2010,03,28,10,00,8.80
2010,03,28,10,01,8.80
2010,03,28,10,02,8.80
2010,03,28,10,03,8.80
2010,03,28,10,04,8.80
2010,03,28,10,05,8.90
2010,03,28,10,06,9.00
2010,03,28,10,07,9.00
2010,03,28,10,08,9.10
2010,03,28,10,09,9.00
2010,03,28,10,10,9.10
2010,03,28,10,11,9.10
2010,03,28,10,12,9.20
2010,03,28,10,13,9.30
2010,03,28,10,14,9.30
2010,03,28,10,15,9.40
2010,03,28,10,16,9.40
2010,03,28,10,17,9.40
2010,03,28,10,18,9.40
2010,03,28,10,19,9.40
2010,03,28,10,20,9.40
2010,03,28,10,21,9.50
2010,03,28,10,22,9.50
2010,03,28,10,23,9.50
2010,03,28,10,24,9.50
2010,03,28,10,25,9.60
2010,03,28,10,26,9.60
2010,03,28,10,27,9.60
2010,03,28,10,28,9.70
2010,03,28,10,29,9.80
2010,03,28,10,30,9.80
2010,03,28,10,31,9.90
2010,03,28,10,32,9.90
2010,03,28,10,33,9.90
2010,03,28,10,34,10.00
2010,03,28,10,35,10.00
2010,03,28,10,36,9.90
2010,03,28,10,37,9.90
2010,03,28,10,38,10.00
2010,03,28,10,39,10.00
2010,03,28,10,40,9.90
2010,03,28,10,41,9.90
2010,03,28,10,42,9.80
2010,03,28,10,43,9.80
2010,03,28,10,44,9.80
2010,03,28,10,45,9.80
2010,03,28,10,46,9.80
2010,03,28,10,47,9.80
2010,03,28,10,48,9.90
2010,03,28,10,49,9.90
2010,03,28,10,50,9.90
2010,03,28,10,51,10.00
2010,03,28,10,52,10.10
2010,03,28,10,53,10.10
2010,03,28,10,54,10.10
2010,03,28,10,55,10.10
2010,03,28,10,56,10.20
2010,03,28,10,57,10.20
2010,03,28,10,58,10.30
2010,03,28,10,59,10.40
2010,03,28,11,00,10.50
2010,03,28,11,01,10.60
2010,03,28,11,02,10.70
2010,03,28,11,03,10.70
2010,03,28,11,04,10.80
2010,03,28,11,05,10.80
2010,03,28,11,06,10.80
2010,03,28,11,07,10.80
2010,03,28,11,08,10.80
2010,03,28,11,09,10.80
2010,03,28,11,10,10.80
2010,03,28,11,11,10.70
2010,03,28,11,12,10.60
2010,03,28,11,13,10.50
2010,03,28,11,14,10.50
2010,03,28,11,15,10.50
2010,03,28,11,16,10.40
2010,03,28,11,17,10.40
2010,03,28,11,18,10.40
2010,03,28,11,19,10.40
2010,03,28,11,20,10.40
2010,03,28,11,21,10.30
2010,03,28,11,22,10.30
2010,03,28,11,23,10.20
2010,03,28,11,24,10.20
2010,03,28,11,25,10.20
2010,03,28,11,26,10.20
2010,03,28,11,27,10.20
2010,03,28,11,28,10.10
2010,03,28,11,29,10.10
2010,03,28,11,30,10.10
2010,03,28,11,31,10.20
2010,03,28,11,32,10.20
2010,03,28,11,33,10.20
2010,03,28,11,34,10.20
2010,03,28,11,35,10.30
2010,03,28,11,36,10.30
2010,03,28,11,37,10.30
2010,03,28,11,38,10.30
2010,03,28,11,39,10.30
2010,03,28,11,40,10.30
2010,03,28,11,41,10.40
2010,03,28,11,42,10.40
2010,03,28,11,43,10.40
2010,03,28,11,44,10.50
2010,03,28,11,45,10.50
2010,03,28,11,46,10.60
2010,03,28,11,47,10.60
2010,03,28,11,48,10.60
2010,03,28,11,49,10.70
2010,03,28,11,50,10.70
2010,03,28,11,51,10.70
2010,03,28,11,52,10.60
2010,03,28,11,53,10.60
2010,03,28,11,54,10.60
2010,03,28,11,55,10.60
2010,03,28,11,56,10.60
2010,03,28,11,57,10.60
2010,03,28,11,58,10.60
2010,03,28,11,59,10.60
2010,03,28,12,00,10.60
2010,03,28,12,01,10.60
2010,03,28,12,02,10.70
2010,03,28,12,03,10.70
2010,03,28,12,04,10.70
2010,03,28,12,05,10.80
2010,03,28,12,06,10.80
2010,03,28,12,07,10.90
2010,03,28,12,08,10.90
2010,03,28,12,09,11.00
2010,03,28,12,10,11.00
2010,03,28,12,11,11.10
2010,03,28,12,12,11.00
2010,03,28,12,13,11.00
2010,03,28,12,14,11.10
2010,03,28,12,15,11.10
2010,03,28,12,16,11.10
2010,03,28,12,17,11.10
2010,03,28,12,18,11.10
2010,03,28,12,19,11.10
2010,03,28,12,20,11.10
2010,03,28,12,21,11.10
2010,03,28,12,22,11.10
2010,03,28,12,23,11.10
2010,03,28,12,24,11.20
2010,03,28,12,25,11.20
2010,03,28,12,26,11.20
2010,03,28,12,27,11.10
2010,03,28,12,28,11.10
2010,03,28,12,29,11.00
2010,03,28,12,30,11.00
2010,03,28,12,31,11.00
2010,03,28,12,32,10.90
2010,03,28,12,33,11.00
2010,03,28,12,34,11.00
2010,03,28,12,35,11.10
2010,03,28,12,36,11.10
2010,03,28,12,37,11.20
2010,03,28,12,38,11.20
2010,03,28,12,39,11.20
2010,03,28,12,40,11.30
2010,03,28,12,41,11.30
2010,03,28,12,42,11.30
2010,03,28,12,43,11.30
2010,03,28,12,44,11.20
2010,03,28,12,45,11.20
2010,03,28,12,46,11.10
2010,03,28,12,47,11.10
2010,03,28,12,48,11.00
2010,03,28,12,49,11.00
2010,03,28,12,50,11.00
2010,03,28,12,51,10.90
2010,03,28,12,52,10.90
2010,03,28,12,53,10.90
2010,03,28,12,54,10.90
2010,03,28,12,55,10.90
2010,03,28,12,56,10.90
2010,03,28,12,57,10.90
2010,03,28,12,58,10.90
2010,03,28,12,59,10.90
2010,03,28,13,00,10.90
2010,03,28,13,01,10.90
2010,03,28,13,02,10.90
2010,03,28,13,03,10.90
2010,03,28,13,04,10.90
2010,03,28,13,05,10.90
2010,03,28,13,06,10.90
2010,03,28,13,07,11.00
2010,03,28,13,08,11.00
2010,03,28,13,09,11.00
2010,03,28,13,10,11.00
2010,03,28,13,11,11.10
2010,03,28,13,12,11.10
2010,03,28,13,13,11.10
2010,03,28,13,14,11.20
2010,03,28,13,15,11.20
2010,03,28,13,16,11.20
2010,03,28,13,17,11.20
2010,03,28,13,18,11.20
2010,03,28,13,19,11.30
2010,03,28,13,20,11.30
2010,03,28,13,21,11.30
2010,03,28,13,22,11.30
2010,03,28,13,23,11.30
2010,03,28,13,24,11.30
2010,03,28,13,25,11.30
2010,03,28,13,26,11.30
2010,03,28,13,27,11.30
2010,03,28,13,28,11.30
2010,03,28,13,29,11.30
2010,03,28,13,30,11.30
2010,03,28,13,31,11.20
2010,03,28,13,32,11.20
2010,03,28,13,33,11.10
2010,03,28,13,34,11.10
2010,03,28,13,35,11.10
2010,03,28,13,36,11.00
2010,03,28,13,37,11.00
2010,03,28,13,38,10.90
2010,03,28,13,39,10.90
2010,03,28,13,40,10.80
2010,03,28,13,41,10.70
2010,03,28,13,42,10.60
2010,03,28,13,43,10.50
2010,03,28,13,44,10.50
2010,03,28,13,45,10.50
2010,03,28,13,46,10.40
2010,03,28,13,47,10.40
2010,03,28,13,48,10.40
2010,03,28,13,49,10.40
2010,03,28,13,50,10.40
2010,03,28,13,51,10.40
2010,03,28,13,52,10.40
2010,03,28,13,53,10.40
2010,03,28,13,54,10.50
2010,03,28,13,55,10.50
2010,03,28,13,56,10.40
2010,03,28,13,57,10.40
2010,03,28,13,58,10.40
2010,03,28,13,59,10.40
2010,03,28,14,00,10.40
2010,03,28,14,01,10.40
2010,03,28,14,02,10.40
2010,03,28,14,03,10.50
2010,03,28,14,04,10.50
2010,03,28,14,05,10.50
2010,03,28,14,06,10.50
2010,03,28,14,07,10.40
2010,03,28,14,08,10.30
2010,03,28,14,09,10.30
2010,03,28,14,10,10.30
2010,03,28,14,11,10.20
2010,03,28,14,12,10.20
2010,03,28,14,13,10.30
2010,03,28,14,14,10.30
2010,03,28,14,15,10.30
2010,03,28,14,16,10.30
2010,03,28,14,17,10.30
2010,03,28,14,18,10.30
2010,03,28,14,19,10.30
2010,03,28,14,20,10.30
2010,03,28,14,21,10.20
2010,03,28,14,22,10.20
2010,03,28,14,23,10.10
2010,03,28,14,24,10.00
2010,03,28,14,25,10.00
2010,03,28,14,26,10.00
2010,03,28,14,27,10.00
2010,03,28,14,28,9.90
2010,03,28,14,29,9.90
2010,03,28,14,30,9.90
2010,03,28,14,31,9.90
2010,03,28,14,32,9.90
2010,03,28,14,33,9.90
2010,03,28,14,34,9.90
2010,03,28,14,35,9.90
2010,03,28,14,36,9.90
2010,03,28,14,37,9.90
2010,03,28,14,38,9.90
2010,03,28,14,39,10.00
2010,03,28,14,40,10.00
2010,03,28,14,41,10.00
2010,03,28,14,42,10.00
2010,03,28,14,43,10.00
2010,03,28,14,44,10.00
2010,03,28,14,45,10.00
2010,03,28,14,46,9.90
2010,03,28,14,47,9.90
2010,03,28,14,48,9.90
2010,03,28,14,49,9.90
2010,03,28,14,50,9.90
2010,03,28,14,51,9.90
2010,03,28,14,52,9.90
2010,03,28,14,53,9.90
2010,03,28,14,54,9.90
2010,03,28,14,55,9.90
2010,03,28,14,56,10.00
2010,03,28,14,57,10.00
2010,03,28,14,58,10.00
2010,03,28,14,59,10.10
2010,03,28,15,00,10.10
2010,03,28,15,01,10.10
2010,03,28,15,02,10.10
2010,03,28,15,03,10.20
2010,03,28,15,04,10.20
2010,03,28,15,05,10.20
2010,03,28,15,06,10.20
2010,03,28,15,07,10.20
2010,03,28,15,08,10.30
2010,03,28,15,09,10.30
2010,03,28,15,10,10.30
2010,03,28,15,11,10.30
2010,03,28,15,12,10.40
2010,03,28,15,13,10.40
2010,03,28,15,14,10.40
2010,03,28,15,15,10.40
2010,03,28,15,16,10.50
2010,03,28,15,17,10.50
2010,03,28,15,18,10.50
2010,03,28,15,19,10.50
2010,03,28,15,20,10.50
2010,03,28,15,21,10.60
2010,03,28,15,22,10.60
2010,03,28,15,23,10.60
2010,03,28,15,24,10.60
2010,03,28,15,25,10.60
2010,03,28,15,26,10.60
2010,03,28,15,27,10.60
2010,03,28,15,28,10.60
2010,03,28,15,29,10.60
2010,03,28,15,30,10.60
2010,03,28,15,31,10.70
2010,03,28,15,32,10.70
2010,03,28,15,33,10.70
2010,03,28,15,34,10.70
2010,03,28,15,35,10.70
2010,03,28,15,36,10.70
2010,03,28,15,37,10.70
2010,03,28,15,38,10.70
2010,03,28,15,39,10.70
2010,03,28,15,40,10.70
2010,03,28,15,41,10.70
2010,03,28,15,42,10.80
2010,03,28,15,43,10.80
2010,03,28,15,44,10.80
2010,03,28,15,45,10.80
2010,03,28,15,46,10.80
2010,03,28,15,47,10.80
2010,03,28,15,48,10.90
2010,03,28,15,49,10.90
2010,03,28,15,50,10.90
2010,03,28,15,51,10.90
2010,03,28,15,52,10.90
2010,03,28,15,53,10.90
2010,03,28,15,54,10.90
2010,03,28,15,55,10.90
2010,03,28,15,56,10.90
2010,03,28,15,57,10.90
2010,03,28,15,58,10.90
2010,03,28,15,59,10.90
2010,03,28,16,00,10.90
2010,03,28,16,01,10.90
2010,03,28,16,02,10.90
2010,03,28,16,03,10.90
2010,03,28,16,04,10.90
2010,03,28,16,05,10.90
2010,03,28,16,06,10.90
2010,03,28,16,07,10.90
2010,03,28,16,08,10.90
2010,03,28,16,09,10.90
2010,03,28,16,10,10.90
2010,03,28,16,11,10.90
2010,03,28,16,12,10.90
2010,03,28,16,13,10.90
2010,03,28,16,14,10.90
2010,03,28,16,15,10.90
2010,03,28,16,16,10.90
2010,03,28,16,17,10.90
2010,03,28,16,18,10.90
2010,03,28,16,19,10.90
2010,03,28,16,20,10.90
2010,03,28,16,21,10.90
2010,03,28,16,22,10.90
2010,03,28,16,23,10.90
2010,03,28,16,24,10.90
2010,03,28,16,25,11.00
2010,03,28,16,26,11.00
2010,03,28,16,27,11.00
2010,03,28,16,28,11.00
2010,03,28,16,29,11.00
2010,03,28,16,30,11.10
2010,03,28,16,31,11.10
2010,03,28,16,32,11.10
2010,03,28,16,33,11.10
2010,03,28,16,34,11.10
2010,03,28,16,35,11.20
2010,03,28,16,36,11.30
2010,03,28,16,37,11.30
2010,03,28,16,38,11.30
2010,03,28,16,39,11.40
2010,03,28,16,40,11.40
2010,03,28,16,41,11.50
2010,03,28,16,42,11.50
2010,03,28,16,43,11.50
2010,03,28,16,44,11.50
2010,03,28,16,45,11.50
2010,03,28,16,46,11.50
2010,03,28,16,47,11.50
2010,03,28,16,48,11.50
2010,03,28,16,49,11.60
2010,03,28,16,50,11.60
2010,03,28,16,51,11.60
2010,03,28,16,52,11.60
2010,03,28,16,53,11.60
2010,03,28,16,54,11.70
2010,03,28,16,55,11.70
2010,03,28,16,56,11.70
2010,03,28,16,57,11.80
2010,03,28,16,58,11.80
2010,03,28,16,59,11.80
2010,03,28,17,00,11.80
2010,03,28,17,01,11.80
2010,03,28,17,02,11.80
2010,03,28,17,03,11.80
2010,03,28,17,04,11.80
2010,03,28,17,05,11.80
2010,03,28,17,06,11.80
2010,03,28,17,07,11.70
2010,03,28,17,08,11.60
2010,03,28,17,09,11.60
2010,03,28,17,10,11.50
2010,03,28,17,11,11.40
2010,03,28,17,12,11.40
2010,03,28,17,13,11.30
2010,03,28,17,14,11.30
2010,03,28,17,15,11.30
2010,03,28,17,16,11.30
2010,03,28,17,17,11.20
2010,03,28,17,18,11.10
2010,03,28,17,19,11.10
2010,03,28,17,20,11.10
2010,03,28,17,21,11.10
2010,03,28,17,22,11.00
2010,03,28,17,23,11.00
2010,03,28,17,24,11.00
2010,03,28,17,25,10.90
2010,03,28,17,26,10.90
2010,03,28,17,27,10.80
2010,03,28,17,28,10.80
2010,03,28,17,29,10.80
2010,03,28,17,30,10.70
2010,03,28,17,31,10.70
2010,03,28,17,32,10.70
2010,03,28,17,33,10.70
2010,03,28,17,34,10.70
2010,03,28,17,35,10.60
2010,03,28,17,36,10.60
2010,03,28,17,37,10.60
2010,03,28,17,38,10.50
2010,03,28,17,39,10.50
2010,03,28,17,40,10.50
2010,03,28,17,41,10.50